STARLINK-37473, 68804

Orbit data source: Space-Track

STARLINK-37473, 68804 is a payload satellite owned by SpaceX/Seattle (US) in SSO that was launched on Thu, 23 Apr 2026 UTC via an FALCON 9 launch vehicle from the Air Force Western Test Range (AFWTR). Payload-class satellites include a variety of spacecraft equipped with specific instruments for various scientific and technological missions. These include communications satellites like Starlink; space stations such as the ISS; scientific satellites like the Hubble; Earth observation satellites from companies like Planet Labs, Umbra, and HawkEye 360; GPS; miniature CubeSats for education and research; and military/defense satellites.

Loading next visibility...
Identifier
68804, 2026-089C
Orbit
SSO
Country
Flag of USUS
Related business
Manufacturer
SpaceX/Seattle
Mission
Operational spacecraft
Bus & Motor
STARLINK V2MO, Unknown motor
Mass
575 kg wet, ~530 kg dry
Launch date (UTC)
2026-04-23 (1 week ago)
Launch vehicle
FALCON 9
Launch site
Air Force Western Test Range (AFWTR)
Object type
Payload
Rocket body
Debris
Shape & HBR
Unknown
Radar Cross Section
RCS unknown

Expand to show TLE details & history
Last TLE update: 8 hours ago

TLE from 8 hours ago
0 STARLINK-37473
1 68804U 26089C   26121.16670139 -.02117412  00000-0 -10028-1 0  9998
2 68804  97.2858 326.5978 0001781 101.1662 173.7300 15.86044800  2448
Epoch: 2026-05-01T04:00Z
TLE epoch observation values (Epoch: 2026-05-01T04:00:03.000Z)
Latitude
-81.28512°
Longitude
103.51697°
Altitude
342.831 km
Speed
7.701 km/s
True Right ascension
01h 30m 31s
True Declination
-81° 13' 49"
Sunlit
Object was in daylight at epoch
Visualization orbit readout
Latitude
Unknown
Longitude
Unknown
Altitude
Unknown
Speed
Unknown
Apparent Right ascension
Unknown
Apparent Declination
Unknown
Sunlit
N/A
Visualization observer readout
Local Sidereal Time
19:13:57
Azimuth
Unknown
Elevation
Unknown
Doppler factor
Unknown
Orbital elements
Apogee altitude
311.449 km
Perigee altitude
309.066 km
Semi-major axis
6,688.395 km
Eccentricity
0.00018
Inclination
97.2858°
RAAN
326.5978°
Arg. of periapsis
101.1662°
True anomaly
173.73223°
Mean anomaly
173.73°
Eccentric anomaly
173.73111°
Mean motion
3.9679 °/min
Orbital period
90.73 mins
BSTAR
-0.010028
Loading maneuver chart data...
Computing Atmospheric mass density...
Loading historical data...
Loading historical data...
Loading historical data...
Loading historical data...
Loading historical data...
Loading historical data...
Loading historical data...

Documentation

Showing up to 5 results
|